Year,Month,Day,Hour,Minute,Value (Times are PST for temperature in C)
2007,09,23,00,00,9.70
2007,09,23,00,01,9.70
2007,09,23,00,02,9.60
2007,09,23,00,03,9.60
2007,09,23,00,04,9.60
2007,09,23,00,05,9.60
2007,09,23,00,06,9.50
2007,09,23,00,07,9.50
2007,09,23,00,08,9.50
2007,09,23,00,09,9.50
2007,09,23,00,10,9.40
2007,09,23,00,11,9.40
2007,09,23,00,12,9.40
2007,09,23,00,13,9.40
2007,09,23,00,14,9.40
2007,09,23,00,15,9.40
2007,09,23,00,16,9.30
2007,09,23,00,17,9.30
2007,09,23,00,18,9.30
2007,09,23,00,19,9.30
2007,09,23,00,20,9.30
2007,09,23,00,21,9.30
2007,09,23,00,22,9.30
2007,09,23,00,23,9.40
2007,09,23,00,24,9.40
2007,09,23,00,25,9.40
2007,09,23,00,26,9.40
2007,09,23,00,27,9.50
2007,09,23,00,28,9.50
2007,09,23,00,29,9.50
2007,09,23,00,30,9.50
2007,09,23,00,31,9.50
2007,09,23,00,32,9.50
2007,09,23,00,33,9.50
2007,09,23,00,34,9.50
2007,09,23,00,35,9.50
2007,09,23,00,36,9.50
2007,09,23,00,37,9.50
2007,09,23,00,38,9.50
2007,09,23,00,39,9.50
2007,09,23,00,40,9.60
2007,09,23,00,41,9.60
2007,09,23,00,42,9.60
2007,09,23,00,43,9.60
2007,09,23,00,44,9.70
2007,09,23,00,45,9.70
2007,09,23,00,46,9.70
2007,09,23,00,47,9.70
2007,09,23,00,48,9.70
2007,09,23,00,49,9.70
2007,09,23,00,50,9.70
2007,09,23,00,51,9.70
2007,09,23,00,52,9.70
2007,09,23,00,53,9.70
2007,09,23,00,54,9.70
2007,09,23,00,55,9.70
2007,09,23,00,56,9.70
2007,09,23,00,57,9.70
2007,09,23,00,58,9.70
2007,09,23,00,59,9.70
2007,09,23,01,00,9.70
2007,09,23,01,01,9.70
2007,09,23,01,02,9.70
2007,09,23,01,03,9.70
2007,09,23,01,04,9.70
2007,09,23,01,05,9.70
2007,09,23,01,06,9.70
2007,09,23,01,07,9.70
2007,09,23,01,08,9.70
2007,09,23,01,09,9.70
2007,09,23,01,10,9.70
2007,09,23,01,11,9.70
2007,09,23,01,12,9.70
2007,09,23,01,13,9.70
2007,09,23,01,14,9.70
2007,09,23,01,15,9.70
2007,09,23,01,16,9.70
2007,09,23,01,17,9.70
2007,09,23,01,18,9.70
2007,09,23,01,19,9.70
2007,09,23,01,20,9.70
2007,09,23,01,21,9.60
2007,09,23,01,22,9.60
2007,09,23,01,23,9.60
2007,09,23,01,24,9.60
2007,09,23,01,25,9.70
2007,09,23,01,26,9.70
2007,09,23,01,27,9.70
2007,09,23,01,28,9.70
2007,09,23,01,29,9.70
2007,09,23,01,30,9.60
2007,09,23,01,31,9.60
2007,09,23,01,32,9.60
2007,09,23,01,33,9.60
2007,09,23,01,34,9.60
2007,09,23,01,35,9.60
2007,09,23,01,36,9.70
2007,09,23,01,37,9.70
2007,09,23,01,38,9.70
2007,09,23,01,39,9.70
2007,09,23,01,40,9.70
2007,09,23,01,41,9.70
2007,09,23,01,42,9.70
2007,09,23,01,43,9.70
2007,09,23,01,44,9.70
2007,09,23,01,45,9.70
2007,09,23,01,46,9.70
2007,09,23,01,47,9.70
2007,09,23,01,48,9.70
2007,09,23,01,49,9.70
2007,09,23,01,50,9.70
2007,09,23,01,51,9.80
2007,09,23,01,52,9.80
2007,09,23,01,53,9.80
2007,09,23,01,54,9.80
2007,09,23,01,55,9.90
2007,09,23,01,56,9.90
2007,09,23,01,57,9.90
2007,09,23,01,58,9.90
2007,09,23,01,59,9.90
2007,09,23,02,00,9.90
2007,09,23,02,01,9.90
2007,09,23,02,02,9.90
2007,09,23,02,03,9.90
2007,09,23,02,04,9.90
2007,09,23,02,05,9.90
2007,09,23,02,06,9.90
2007,09,23,02,07,9.90
2007,09,23,02,08,9.90
2007,09,23,02,09,9.90
2007,09,23,02,10,9.90
2007,09,23,02,11,9.90
2007,09,23,02,12,9.90
2007,09,23,02,13,9.90
2007,09,23,02,14,9.90
2007,09,23,02,15,9.90
2007,09,23,02,16,9.90
2007,09,23,02,17,9.90
2007,09,23,02,18,9.90
2007,09,23,02,19,9.90
2007,09,23,02,20,9.90
2007,09,23,02,21,9.90
2007,09,23,02,22,9.90
2007,09,23,02,23,9.90
2007,09,23,02,24,9.90
2007,09,23,02,25,9.90
2007,09,23,02,26,9.90
2007,09,23,02,27,9.90
2007,09,23,02,28,9.90
2007,09,23,02,29,9.90
2007,09,23,02,30,9.90
2007,09,23,02,31,9.90
2007,09,23,02,32,9.90
2007,09,23,02,33,9.90
2007,09,23,02,34,9.90
2007,09,23,02,35,9.90
2007,09,23,02,36,9.90
2007,09,23,02,37,9.90
2007,09,23,02,38,9.90
2007,09,23,02,39,9.90
2007,09,23,02,40,9.90
2007,09,23,02,41,9.90
2007,09,23,02,42,9.90
2007,09,23,02,43,9.90
2007,09,23,02,44,9.90
2007,09,23,02,45,9.90
2007,09,23,02,46,9.90
2007,09,23,02,47,9.90
2007,09,23,02,48,9.90
2007,09,23,02,49,9.90
2007,09,23,02,50,9.90
2007,09,23,02,51,9.90
2007,09,23,02,52,9.90
2007,09,23,02,53,9.90
2007,09,23,02,54,9.90
2007,09,23,02,55,9.90
2007,09,23,02,56,9.90
2007,09,23,02,57,9.90
2007,09,23,02,58,9.90
2007,09,23,02,59,9.90
2007,09,23,03,00,9.90
2007,09,23,03,01,9.90
2007,09,23,03,02,9.90
2007,09,23,03,03,9.80
2007,09,23,03,04,9.80
2007,09,23,03,05,9.80
2007,09,23,03,06,9.80
2007,09,23,03,07,9.80
2007,09,23,03,08,9.80
2007,09,23,03,09,9.70
2007,09,23,03,10,9.70
2007,09,23,03,11,9.70
2007,09,23,03,12,9.70
2007,09,23,03,13,9.70
2007,09,23,03,14,9.70
2007,09,23,03,15,9.70
2007,09,23,03,16,9.60
2007,09,23,03,17,9.60
2007,09,23,03,18,9.60
2007,09,23,03,19,9.60
2007,09,23,03,20,9.60
2007,09,23,03,21,9.60
2007,09,23,03,22,9.60
2007,09,23,03,23,9.60
2007,09,23,03,24,9.60
2007,09,23,03,25,9.60
2007,09,23,03,26,9.60
2007,09,23,03,27,9.60
2007,09,23,03,28,9.60
2007,09,23,03,29,9.60
2007,09,23,03,30,9.60
2007,09,23,03,31,9.60
2007,09,23,03,32,9.60
2007,09,23,03,33,9.60
2007,09,23,03,34,9.60
2007,09,23,03,35,9.60
2007,09,23,03,36,9.60
2007,09,23,03,37,9.60
2007,09,23,03,38,9.60
2007,09,23,03,39,9.60
2007,09,23,03,40,9.60
2007,09,23,03,41,9.60
2007,09,23,03,42,9.50
2007,09,23,03,43,9.50
2007,09,23,03,44,9.50
2007,09,23,03,45,9.50
2007,09,23,03,46,9.50
2007,09,23,03,47,9.50
2007,09,23,03,48,9.50
2007,09,23,03,49,9.50
2007,09,23,03,50,9.40
2007,09,23,03,51,9.40
2007,09,23,03,52,9.40
2007,09,23,03,53,9.40
2007,09,23,03,54,9.40
2007,09,23,03,55,9.30
2007,09,23,03,56,9.30
2007,09,23,03,57,9.20
2007,09,23,03,58,9.20
2007,09,23,03,59,9.20
2007,09,23,04,00,9.10
2007,09,23,04,01,9.10
2007,09,23,04,02,9.10
2007,09,23,04,03,9.10
2007,09,23,04,04,9.10
2007,09,23,04,05,9.00
2007,09,23,04,06,9.00
2007,09,23,04,07,9.00
2007,09,23,04,08,9.00
2007,09,23,04,09,9.00
2007,09,23,04,10,8.90
2007,09,23,04,11,8.90
2007,09,23,04,12,8.90
2007,09,23,04,13,8.90
2007,09,23,04,14,8.90
2007,09,23,04,15,8.90
2007,09,23,04,16,8.90
2007,09,23,04,17,8.90
2007,09,23,04,18,8.90
2007,09,23,04,19,8.90
2007,09,23,04,20,8.80
2007,09,23,04,21,8.80
2007,09,23,04,22,8.80
2007,09,23,04,23,8.80
2007,09,23,04,24,8.80
2007,09,23,04,25,8.80
2007,09,23,04,26,8.70
2007,09,23,04,27,8.70
2007,09,23,04,28,8.70
2007,09,23,04,29,8.70
2007,09,23,04,30,8.70
2007,09,23,04,31,8.70
2007,09,23,04,32,8.70
2007,09,23,04,33,8.70
2007,09,23,04,34,8.70
2007,09,23,04,35,8.70
2007,09,23,04,36,8.70
2007,09,23,04,37,8.70
2007,09,23,04,38,8.70
2007,09,23,04,39,8.70
2007,09,23,04,40,8.70
2007,09,23,04,41,8.70
2007,09,23,04,42,8.70
2007,09,23,04,43,8.70
2007,09,23,04,44,8.70
2007,09,23,04,45,8.60
2007,09,23,04,46,8.60
2007,09,23,04,47,8.60
2007,09,23,04,48,8.60
2007,09,23,04,49,8.60
2007,09,23,04,50,8.60
2007,09,23,04,51,8.60
2007,09,23,04,52,8.60
2007,09,23,04,53,8.60
2007,09,23,04,54,8.70
2007,09,23,04,55,8.70
2007,09,23,04,56,8.70
2007,09,23,04,57,8.60
2007,09,23,04,58,8.60
2007,09,23,04,59,8.50
2007,09,23,05,00,8.50
2007,09,23,05,01,8.50
2007,09,23,05,02,8.40
2007,09,23,05,03,8.40
2007,09,23,05,04,8.40
2007,09,23,05,05,8.40
2007,09,23,05,06,8.50
2007,09,23,05,07,8.50
2007,09,23,05,08,8.40
2007,09,23,05,09,8.40
2007,09,23,05,10,8.40
2007,09,23,05,11,8.30
2007,09,23,05,12,8.30
2007,09,23,05,13,8.20
2007,09,23,05,14,8.20
2007,09,23,05,15,8.20
2007,09,23,05,16,8.20
2007,09,23,05,17,8.10
2007,09,23,05,18,8.10
2007,09,23,05,19,8.00
2007,09,23,05,20,8.00
2007,09,23,05,21,8.00
2007,09,23,05,22,7.90
2007,09,23,05,23,7.90
2007,09,23,05,24,7.90
2007,09,23,05,25,7.90
2007,09,23,05,26,7.90
2007,09,23,05,27,7.90
2007,09,23,05,28,7.90
2007,09,23,05,29,7.90
2007,09,23,05,30,7.90
2007,09,23,05,31,7.90
2007,09,23,05,32,7.90
2007,09,23,05,33,7.80
2007,09,23,05,34,7.80
2007,09,23,05,35,7.80
2007,09,23,05,36,7.80
2007,09,23,05,37,7.80
2007,09,23,05,38,7.70
2007,09,23,05,39,7.70
2007,09,23,05,40,7.70
2007,09,23,05,41,7.70
2007,09,23,05,42,7.70
2007,09,23,05,43,7.70
2007,09,23,05,44,7.70
2007,09,23,05,45,7.70
2007,09,23,05,46,7.70
2007,09,23,05,47,7.70
2007,09,23,05,48,7.70
2007,09,23,05,49,7.70
2007,09,23,05,50,7.80
2007,09,23,05,51,7.80
2007,09,23,05,52,7.80
2007,09,23,05,53,7.80
2007,09,23,05,54,7.80
2007,09,23,05,55,7.80
2007,09,23,05,56,7.80
2007,09,23,05,57,7.80
2007,09,23,05,58,7.70
2007,09,23,05,59,7.70
2007,09,23,06,00,7.70
2007,09,23,06,01,7.70
2007,09,23,06,02,7.70
2007,09,23,06,03,7.70
2007,09,23,06,04,7.60
2007,09,23,06,05,7.60
2007,09,23,06,06,7.60
2007,09,23,06,07,7.60
2007,09,23,06,08,7.60
2007,09,23,06,09,7.50
2007,09,23,06,10,7.50
2007,09,23,06,11,7.50
2007,09,23,06,12,7.40
2007,09,23,06,13,7.40
2007,09,23,06,14,7.40
2007,09,23,06,15,7.30
2007,09,23,06,16,7.30
2007,09,23,06,17,7.30
2007,09,23,06,18,7.30
2007,09,23,06,19,7.30
2007,09,23,06,20,7.20
2007,09,23,06,21,7.20
2007,09,23,06,22,7.20
2007,09,23,06,23,7.20
2007,09,23,06,24,7.20
2007,09,23,06,25,7.20
2007,09,23,06,26,7.20
2007,09,23,06,27,7.20
2007,09,23,06,28,7.10
2007,09,23,06,29,7.10
2007,09,23,06,30,7.10
2007,09,23,06,31,7.10
2007,09,23,06,32,7.10
2007,09,23,06,33,7.10
2007,09,23,06,34,7.10
2007,09,23,06,35,7.10
2007,09,23,06,36,7.20
2007,09,23,06,37,7.20
2007,09,23,06,38,7.20
2007,09,23,06,39,7.10
2007,09,23,06,40,7.10
2007,09,23,06,41,7.00
2007,09,23,06,42,7.00
2007,09,23,06,43,6.90
2007,09,23,06,44,6.90
2007,09,23,06,45,6.80
2007,09,23,06,46,6.80
2007,09,23,06,47,6.80
2007,09,23,06,48,6.70
2007,09,23,06,49,6.70
2007,09,23,06,50,6.70
2007,09,23,06,51,6.60
2007,09,23,06,52,6.60
2007,09,23,06,53,6.60
2007,09,23,06,54,6.60
2007,09,23,06,55,6.60
2007,09,23,06,56,6.60
2007,09,23,06,57,6.60
2007,09,23,06,58,6.60
2007,09,23,06,59,6.60
2007,09,23,07,00,6.60
2007,09,23,07,01,6.60
2007,09,23,07,02,6.60
2007,09,23,07,03,6.60
2007,09,23,07,04,6.60
2007,09,23,07,05,6.60
2007,09,23,07,06,6.70
2007,09,23,07,07,6.70
2007,09,23,07,08,6.80
2007,09,23,07,09,6.80
2007,09,23,07,10,6.80
2007,09,23,07,11,6.90
2007,09,23,07,12,6.90
2007,09,23,07,13,6.90
2007,09,23,07,14,6.90
2007,09,23,07,15,6.80
2007,09,23,07,16,6.80
2007,09,23,07,17,6.80
2007,09,23,07,18,6.80
2007,09,23,07,19,6.80
2007,09,23,07,20,6.70
2007,09,23,07,21,6.60
2007,09,23,07,22,6.60
2007,09,23,07,23,6.60
2007,09,23,07,24,6.60
2007,09,23,07,25,6.60
2007,09,23,07,26,6.60
2007,09,23,07,27,6.60
2007,09,23,07,28,6.60
2007,09,23,07,29,6.60
2007,09,23,07,30,6.70
2007,09,23,07,31,6.80
2007,09,23,07,32,6.80
2007,09,23,07,33,6.90
2007,09,23,07,34,7.00
2007,09,23,07,35,7.10
2007,09,23,07,36,7.20
2007,09,23,07,37,7.20
2007,09,23,07,38,7.30
2007,09,23,07,39,7.30
2007,09,23,07,40,7.40
2007,09,23,07,41,7.40
2007,09,23,07,42,7.50
2007,09,23,07,43,7.50
2007,09,23,07,44,7.60
2007,09,23,07,45,7.60
2007,09,23,07,46,7.70
2007,09,23,07,47,7.70
2007,09,23,07,48,7.80
2007,09,23,07,49,7.80
2007,09,23,07,50,7.90
2007,09,23,07,51,8.00
2007,09,23,07,52,8.20
2007,09,23,07,53,8.30
2007,09,23,07,54,8.40
2007,09,23,07,55,8.40
2007,09,23,07,56,8.50
2007,09,23,07,57,8.50
2007,09,23,07,58,8.50
2007,09,23,07,59,8.50
2007,09,23,08,00,8.50
2007,09,23,08,01,8.50
2007,09,23,08,02,8.60
2007,09,23,08,03,8.70
2007,09,23,08,04,8.70
2007,09,23,08,05,8.80
2007,09,23,08,06,8.80
2007,09,23,08,07,8.90
2007,09,23,08,08,8.90
2007,09,23,08,09,8.80
2007,09,23,08,10,8.80
2007,09,23,08,11,8.70
2007,09,23,08,12,8.70
2007,09,23,08,13,8.70
2007,09,23,08,14,8.70
2007,09,23,08,15,8.70
2007,09,23,08,16,8.70
2007,09,23,08,17,8.70
2007,09,23,08,18,8.70
2007,09,23,08,19,8.70
2007,09,23,08,20,8.80
2007,09,23,08,21,8.80
2007,09,23,08,22,8.90
2007,09,23,08,23,8.90
2007,09,23,08,24,8.90
2007,09,23,08,25,8.90
2007,09,23,08,26,9.00
2007,09,23,08,27,9.00
2007,09,23,08,28,9.00
2007,09,23,08,29,9.10
2007,09,23,08,30,9.10
2007,09,23,08,31,9.20
2007,09,23,08,32,9.20
2007,09,23,08,33,9.20
2007,09,23,08,34,9.30
2007,09,23,08,35,9.30
2007,09,23,08,36,9.40
2007,09,23,08,37,9.40
2007,09,23,08,38,9.50
2007,09,23,08,39,9.70
2007,09,23,08,40,9.80
2007,09,23,08,41,9.90
2007,09,23,08,42,10.00
2007,09,23,08,43,10.10
2007,09,23,08,44,10.10
2007,09,23,08,45,10.10
2007,09,23,08,46,10.10
2007,09,23,08,47,10.20
2007,09,23,08,48,10.30
2007,09,23,08,49,10.40
2007,09,23,08,50,10.40
2007,09,23,08,51,10.50
2007,09,23,08,52,10.60
2007,09,23,08,53,10.60
2007,09,23,08,54,10.70
2007,09,23,08,55,10.80
2007,09,23,08,56,10.80
2007,09,23,08,57,10.90
2007,09,23,08,58,10.90
2007,09,23,08,59,11.00
2007,09,23,09,00,11.10
2007,09,23,09,01,11.10
2007,09,23,09,02,11.20
2007,09,23,09,03,11.30
2007,09,23,09,04,11.30
2007,09,23,09,05,11.40
2007,09,23,09,06,11.40
2007,09,23,09,07,11.40
2007,09,23,09,08,11.40
2007,09,23,09,09,11.60
2007,09,23,09,10,11.60
2007,09,23,09,11,11.60
2007,09,23,09,12,11.60
2007,09,23,09,13,11.70
2007,09,23,09,14,11.70
2007,09,23,09,15,11.80
2007,09,23,09,16,11.80
2007,09,23,09,17,11.90
2007,09,23,09,18,11.90
2007,09,23,09,19,12.00
2007,09,23,09,20,12.00
2007,09,23,09,21,12.00
2007,09,23,09,22,12.10
2007,09,23,09,23,12.20
2007,09,23,09,24,12.20
2007,09,23,09,25,12.30
2007,09,23,09,26,12.30
2007,09,23,09,27,12.30
2007,09,23,09,28,12.30
2007,09,23,09,29,12.30
2007,09,23,09,30,12.40
2007,09,23,09,31,12.40
2007,09,23,09,32,12.40
2007,09,23,09,33,12.40
2007,09,23,09,34,12.50
2007,09,23,09,35,12.50
2007,09,23,09,36,12.60
2007,09,23,09,37,12.70
2007,09,23,09,38,12.80
2007,09,23,09,39,12.80
2007,09,23,09,40,12.80
2007,09,23,09,41,12.80
2007,09,23,09,42,12.80
2007,09,23,09,43,12.80
2007,09,23,09,44,12.90
2007,09,23,09,45,12.90
2007,09,23,09,46,13.00
2007,09,23,09,47,13.00
2007,09,23,09,48,13.10
2007,09,23,09,49,13.20
2007,09,23,09,50,13.20
2007,09,23,09,51,13.30
2007,09,23,09,52,13.30
2007,09,23,09,53,13.30
2007,09,23,09,54,13.30
2007,09,23,09,55,13.30
2007,09,23,09,56,13.30
2007,09,23,09,57,13.30
2007,09,23,09,58,13.30
2007,09,23,09,59,13.40
2007,09,23,10,00,13.50
2007,09,23,10,01,13.50
2007,09,23,10,02,13.50
2007,09,23,10,03,13.60
2007,09,23,10,04,13.60
2007,09,23,10,05,13.70
2007,09,23,10,06,13.70
2007,09,23,10,07,13.70
2007,09,23,10,08,13.70
2007,09,23,10,09,13.60
2007,09,23,10,10,13.60
2007,09,23,10,11,13.60
2007,09,23,10,12,13.60
2007,09,23,10,13,13.70
2007,09,23,10,14,13.70
2007,09,23,10,15,13.70
2007,09,23,10,16,13.70
2007,09,23,10,17,13.70
2007,09,23,10,18,13.70
2007,09,23,10,19,13.70
2007,09,23,10,20,13.80
2007,09,23,10,21,13.90
2007,09,23,10,22,13.90
2007,09,23,10,23,13.90
2007,09,23,10,24,13.90
2007,09,23,10,25,13.90
2007,09,23,10,26,13.90
2007,09,23,10,27,13.90
2007,09,23,10,28,13.90
2007,09,23,10,29,14.00
2007,09,23,10,30,14.10
2007,09,23,10,31,14.10
2007,09,23,10,32,14.20
2007,09,23,10,33,14.20
2007,09,23,10,34,14.20
2007,09,23,10,35,14.20
2007,09,23,10,36,14.20
2007,09,23,10,37,14.20
2007,09,23,10,38,14.20
2007,09,23,10,39,14.20
2007,09,23,10,40,14.20
2007,09,23,10,41,14.20
2007,09,23,10,42,14.20
2007,09,23,10,43,14.20
2007,09,23,10,44,14.20
2007,09,23,10,45,14.20
2007,09,23,10,46,14.20
2007,09,23,10,47,14.20
2007,09,23,10,48,14.20
2007,09,23,10,49,14.30
2007,09,23,10,50,14.30
2007,09,23,10,51,14.30
2007,09,23,10,52,14.40
2007,09,23,10,53,14.40
2007,09,23,10,54,14.40
2007,09,23,10,55,14.30
2007,09,23,10,56,14.30
2007,09,23,10,57,14.30
2007,09,23,10,58,14.40
2007,09,23,10,59,14.40
2007,09,23,11,00,14.40
2007,09,23,11,01,14.50
2007,09,23,11,02,14.60
2007,09,23,11,03,14.60
2007,09,23,11,04,14.50
2007,09,23,11,05,14.60
2007,09,23,11,06,14.70
2007,09,23,11,07,14.70
2007,09,23,11,08,14.80
2007,09,23,11,09,14.80
2007,09,23,11,10,14.80
2007,09,23,11,11,14.80
2007,09,23,11,12,14.80
2007,09,23,11,13,14.90
2007,09,23,11,14,14.90
2007,09,23,11,15,14.70
2007,09,23,11,16,14.60
2007,09,23,11,17,14.50
2007,09,23,11,18,14.40
2007,09,23,11,19,14.20
2007,09,23,11,20,14.30
2007,09,23,11,21,14.40
2007,09,23,11,22,14.50
2007,09,23,11,23,14.50
2007,09,23,11,24,14.50
2007,09,23,11,25,14.60
2007,09,23,11,26,14.70
2007,09,23,11,27,14.80
2007,09,23,11,28,15.00
2007,09,23,11,29,14.90
2007,09,23,11,30,14.80
2007,09,23,11,31,14.70
2007,09,23,11,32,14.50
2007,09,23,11,33,14.40
2007,09,23,11,34,14.30
2007,09,23,11,35,14.30
2007,09,23,11,36,14.30
2007,09,23,11,37,14.30
2007,09,23,11,38,14.30
2007,09,23,11,39,14.30
2007,09,23,11,40,14.30
2007,09,23,11,41,14.20
2007,09,23,11,42,14.20
2007,09,23,11,43,14.10
2007,09,23,11,44,14.00
2007,09,23,11,45,14.00
2007,09,23,11,46,13.90
2007,09,23,11,47,13.90
2007,09,23,11,48,13.80
2007,09,23,11,49,13.80
2007,09,23,11,50,13.80
2007,09,23,11,51,13.70
2007,09,23,11,52,13.80
2007,09,23,11,53,13.80
2007,09,23,11,54,13.90
2007,09,23,11,55,14.00
2007,09,23,11,56,14.10
2007,09,23,11,57,14.20
2007,09,23,11,58,14.20
2007,09,23,11,59,14.20
2007,09,23,12,00,14.20
2007,09,23,12,01,14.20
2007,09,23,12,02,14.30
2007,09,23,12,03,14.30
2007,09,23,12,04,14.20
2007,09,23,12,05,14.20
2007,09,23,12,06,14.10
2007,09,23,12,07,14.00
2007,09,23,12,08,14.10
2007,09,23,12,09,14.10
2007,09,23,12,10,14.10
2007,09,23,12,11,14.20
2007,09,23,12,12,14.20
2007,09,23,12,13,14.30
2007,09,23,12,14,14.40
2007,09,23,12,15,14.50
2007,09,23,12,16,14.40
2007,09,23,12,17,14.40
2007,09,23,12,18,14.30
2007,09,23,12,19,14.30
2007,09,23,12,20,14.40
2007,09,23,12,21,14.40
2007,09,23,12,22,14.50
2007,09,23,12,23,14.50
2007,09,23,12,24,14.50
2007,09,23,12,25,14.50
2007,09,23,12,26,14.50
2007,09,23,12,27,14.50
2007,09,23,12,28,14.60
2007,09,23,12,29,14.60
2007,09,23,12,30,14.60
2007,09,23,12,31,14.60
2007,09,23,12,32,14.60
2007,09,23,12,33,14.60
2007,09,23,12,34,14.70
2007,09,23,12,35,14.70
2007,09,23,12,36,14.70
2007,09,23,12,37,14.70
2007,09,23,12,38,14.80
2007,09,23,12,39,14.80
2007,09,23,12,40,14.80
2007,09,23,12,41,14.80
2007,09,23,12,42,14.90
2007,09,23,12,43,15.00
2007,09,23,12,44,15.00
2007,09,23,12,45,15.00
2007,09,23,12,46,14.90
2007,09,23,12,47,14.90
2007,09,23,12,48,14.90
2007,09,23,12,49,14.90
2007,09,23,12,50,14.90
2007,09,23,12,51,14.90
2007,09,23,12,52,15.00
2007,09,23,12,53,15.10
2007,09,23,12,54,15.30
2007,09,23,12,55,15.40
2007,09,23,12,56,15.40
2007,09,23,12,57,15.50
2007,09,23,12,58,15.50
2007,09,23,12,59,15.60
2007,09,23,13,00,15.70
2007,09,23,13,01,15.90
2007,09,23,13,02,16.00
2007,09,23,13,03,16.10
2007,09,23,13,04,16.10
2007,09,23,13,05,16.10
2007,09,23,13,06,16.20
2007,09,23,13,07,16.30
2007,09,23,13,08,16.30
2007,09,23,13,09,16.40
2007,09,23,13,10,16.40
2007,09,23,13,11,16.40
2007,09,23,13,12,16.40
2007,09,23,13,13,16.50
2007,09,23,13,14,16.60
2007,09,23,13,15,16.60
2007,09,23,13,16,16.60
2007,09,23,13,17,16.70
2007,09,23,13,18,16.70
2007,09,23,13,19,16.70
2007,09,23,13,20,16.80
2007,09,23,13,21,17.00
2007,09,23,13,22,16.90
2007,09,23,13,23,16.90
2007,09,23,13,24,16.90
2007,09,23,13,25,16.90
2007,09,23,13,26,16.80
2007,09,23,13,27,16.70
2007,09,23,13,28,16.60
2007,09,23,13,29,16.60
2007,09,23,13,30,16.70
2007,09,23,13,31,16.90
2007,09,23,13,32,17.00
2007,09,23,13,33,17.10
2007,09,23,13,34,17.30
2007,09,23,13,35,17.30
2007,09,23,13,36,17.40
2007,09,23,13,37,17.60
2007,09,23,13,38,17.70
2007,09,23,13,39,17.70
2007,09,23,13,40,17.70
2007,09,23,13,41,17.80
2007,09,23,13,42,17.90
2007,09,23,13,43,17.90
2007,09,23,13,44,17.90
2007,09,23,13,45,17.70
2007,09,23,13,46,17.60
2007,09,23,13,47,17.50
2007,09,23,13,48,17.30
2007,09,23,13,49,17.10
2007,09,23,13,50,16.90
2007,09,23,13,51,16.80
2007,09,23,13,52,16.80
2007,09,23,13,53,16.90
2007,09,23,13,54,16.90
2007,09,23,13,55,17.00
2007,09,23,13,56,17.00
2007,09,23,13,57,17.00
2007,09,23,13,58,16.90
2007,09,23,13,59,16.80
2007,09,23,14,00,16.70
2007,09,23,14,01,16.60
2007,09,23,14,02,16.60
2007,09,23,14,03,16.60
2007,09,23,14,04,16.60
2007,09,23,14,05,16.60
2007,09,23,14,06,16.50
2007,09,23,14,07,16.40
2007,09,23,14,08,16.40
2007,09,23,14,09,16.40
2007,09,23,14,10,16.50
2007,09,23,14,11,16.60
2007,09,23,14,12,16.70
2007,09,23,14,13,16.80
2007,09,23,14,14,16.90
2007,09,23,14,15,16.90
2007,09,23,14,16,16.90
2007,09,23,14,17,16.90
2007,09,23,14,18,17.00
2007,09,23,14,19,17.00
2007,09,23,14,20,17.10
2007,09,23,14,21,17.20
2007,09,23,14,22,17.30
2007,09,23,14,23,17.30
2007,09,23,14,24,17.50
2007,09,23,14,25,17.60
2007,09,23,14,26,17.60
2007,09,23,14,27,17.60
2007,09,23,14,28,17.60
2007,09,23,14,29,17.50
2007,09,23,14,30,17.50
2007,09,23,14,31,17.50
2007,09,23,14,32,17.50
2007,09,23,14,33,17.40
2007,09,23,14,34,17.50
2007,09,23,14,35,17.70
2007,09,23,14,36,17.70
2007,09,23,14,37,17.80
2007,09,23,14,38,17.90
2007,09,23,14,39,17.90
2007,09,23,14,40,17.90
2007,09,23,14,41,17.80
2007,09,23,14,42,17.60
2007,09,23,14,43,17.60
2007,09,23,14,44,17.50
2007,09,23,14,45,17.50
2007,09,23,14,46,17.50
2007,09,23,14,47,17.40
2007,09,23,14,48,17.40
2007,09,23,14,49,17.50
2007,09,23,14,50,17.30
2007,09,23,14,51,17.40
2007,09,23,14,52,17.50
2007,09,23,14,53,17.50
2007,09,23,14,54,17.60
2007,09,23,14,55,17.60
2007,09,23,14,56,17.40
2007,09,23,14,57,17.30
2007,09,23,14,58,17.00
2007,09,23,14,59,16.80
2007,09,23,15,00,16.70
2007,09,23,15,01,16.70
2007,09,23,15,02,16.60
2007,09,23,15,03,16.50
2007,09,23,15,04,16.50
2007,09,23,15,05,16.60
2007,09,23,15,06,16.70
2007,09,23,15,07,16.70
2007,09,23,15,08,16.80
2007,09,23,15,09,16.80
2007,09,23,15,10,16.90
2007,09,23,15,11,16.90
2007,09,23,15,12,16.70
2007,09,23,15,13,16.70
2007,09,23,15,14,16.50
2007,09,23,15,15,16.40
2007,09,23,15,16,16.40
2007,09,23,15,17,16.30
2007,09,23,15,18,16.30
2007,09,23,15,19,16.30
2007,09,23,15,20,16.30
2007,09,23,15,21,16.30
2007,09,23,15,22,16.30
2007,09,23,15,23,16.30
2007,09,23,15,24,16.50
2007,09,23,15,25,16.70
2007,09,23,15,26,16.80
2007,09,23,15,27,16.90
2007,09,23,15,28,16.90
2007,09,23,15,29,17.00
2007,09,23,15,30,17.00
2007,09,23,15,31,16.90
2007,09,23,15,32,16.70
2007,09,23,15,33,16.70
2007,09,23,15,34,16.70
2007,09,23,15,35,16.80
2007,09,23,15,36,16.80
2007,09,23,15,37,16.80
2007,09,23,15,38,16.80
2007,09,23,15,39,16.70
2007,09,23,15,40,16.60
2007,09,23,15,41,16.60
2007,09,23,15,42,16.60
2007,09,23,15,43,16.60
2007,09,23,15,44,16.50
2007,09,23,15,45,16.40
2007,09,23,15,46,16.40
2007,09,23,15,47,16.40
2007,09,23,15,48,16.40
2007,09,23,15,49,16.40
2007,09,23,15,50,16.40
2007,09,23,15,51,16.50
2007,09,23,15,52,16.70
2007,09,23,15,53,16.80
2007,09,23,15,54,16.90
2007,09,23,15,55,17.00
2007,09,23,15,56,17.10
2007,09,23,15,57,17.20
2007,09,23,15,58,17.30
2007,09,23,15,59,17.40
2007,09,23,16,00,17.40
2007,09,23,16,01,17.40
2007,09,23,16,02,17.30
2007,09,23,16,03,17.30
2007,09,23,16,04,17.20
2007,09,23,16,05,17.20
2007,09,23,16,06,17.30
2007,09,23,16,07,17.30
2007,09,23,16,08,17.30
2007,09,23,16,09,17.30
2007,09,23,16,10,17.30
2007,09,23,16,11,17.20
2007,09,23,16,12,17.10
2007,09,23,16,13,17.00
2007,09,23,16,14,16.80
2007,09,23,16,15,16.70
2007,09,23,16,16,16.50
2007,09,23,16,17,16.40
2007,09,23,16,18,16.40
2007,09,23,16,19,16.40
2007,09,23,16,20,16.30
2007,09,23,16,21,16.20
2007,09,23,16,22,16.10
2007,09,23,16,23,16.10
2007,09,23,16,24,16.10
2007,09,23,16,25,16.10
2007,09,23,16,26,16.10
2007,09,23,16,27,16.10
2007,09,23,16,28,16.00
2007,09,23,16,29,15.80
2007,09,23,16,30,15.80
2007,09,23,16,31,15.80
2007,09,23,16,32,15.80
2007,09,23,16,33,15.80
2007,09,23,16,34,15.80
2007,09,23,16,35,15.80
2007,09,23,16,36,15.80
2007,09,23,16,37,15.80
2007,09,23,16,38,15.90
2007,09,23,16,39,15.90
2007,09,23,16,40,15.90
2007,09,23,16,41,15.90
2007,09,23,16,42,15.90
2007,09,23,16,43,15.90
2007,09,23,16,44,15.90
2007,09,23,16,45,15.90
2007,09,23,16,46,15.90
2007,09,23,16,47,15.90
2007,09,23,16,48,15.90
2007,09,23,16,49,15.90
2007,09,23,16,50,15.90
2007,09,23,16,51,15.90
2007,09,23,16,52,15.90
2007,09,23,16,53,15.90
2007,09,23,16,54,15.80
2007,09,23,16,55,15.80
2007,09,23,16,56,15.80
2007,09,23,16,57,15.80
2007,09,23,16,58,15.80
2007,09,23,16,59,15.70
2007,09,23,17,00,15.70
2007,09,23,17,01,15.60
2007,09,23,17,02,15.60
2007,09,23,17,03,15.60
2007,09,23,17,04,15.60
2007,09,23,17,05,15.60
2007,09,23,17,06,15.60
2007,09,23,17,07,15.50
2007,09,23,17,08,15.50
2007,09,23,17,09,15.50
2007,09,23,17,10,15.40
2007,09,23,17,11,15.40
2007,09,23,17,12,15.30
2007,09,23,17,13,15.30
2007,09,23,17,14,15.30
2007,09,23,17,15,15.20
2007,09,23,17,16,15.20
2007,09,23,17,17,15.20
2007,09,23,17,18,15.30
2007,09,23,17,19,15.30
2007,09,23,17,20,15.20
2007,09,23,17,21,15.20
2007,09,23,17,22,15.10
2007,09,23,17,23,15.10
2007,09,23,17,24,15.20
2007,09,23,17,25,15.30
2007,09,23,17,26,15.30
2007,09,23,17,27,15.30
2007,09,23,17,28,15.30
2007,09,23,17,29,15.30
2007,09,23,17,30,15.30
2007,09,23,17,31,15.20
2007,09,23,17,32,15.20
2007,09,23,17,33,15.20
2007,09,23,17,34,15.20
2007,09,23,17,35,15.20
2007,09,23,17,36,15.10
2007,09,23,17,37,15.00
2007,09,23,17,38,15.00
2007,09,23,17,39,14.90
2007,09,23,17,40,14.90
2007,09,23,17,41,14.90
2007,09,23,17,42,14.90